Location: Abraham Lincoln Continuation High School
(33.9711°N, 117.3662°W)
Time: 05:07:08
(UTC+00:00)

Cosmos 2151 Rocket - Pass Details

Date: 21 September 2020
Orbit: 618 x 642 km, 82.5° (Epoch: 25 October)

Event Time Altitude Azimuth Distance (km) Brightness Sun altitude
Rises 03:28:28 0° 195° (SSW) 2,893 7.0 -21.4°
Reaches altitude 10° 03:30:43 10° 200° (SSW) 1,994 6.2 -21.8°
Maximum altitude 03:35:03 55° 278° (W) 760 4.3 -22.7°
Drops below altitude 10° 03:39:27 10° 357° (N) 2,023 6.4 -23.6°
Sets 03:41:45 0° 2° (N) 2,939 7.2 -24.0°
